Cartosat-2 Series Satellite

operational
NORAD ID: 43111 Int'l Des: 2018-004 Owner: ISRO Country: IN
LEOCIRCULARRETROGRADESSO

About Cartosat-2 Series Satellite

Description loading...

Live Position

Loading 3D Globe...

Upcoming Passes

Altitude History

Altitude vs Time

uPlot chart will show altitude changes over time

Two-Line Element Set

1 43111U 18004A 26102.93708962 .00001488 00000-0 73676-4 0 9992
2 43111 97.4101 163.4658 0002508 118.0845 242.0643 15.19298983457427
Epoch: Apr 12, 2026 • Age: 7 hours

Current Status

Altitude 514.1 km
Velocity 7.61 km/s
Sub-Earth Point 49.26°N, 70.2°E
Launch Date Jan 12, 2018
Age 8.2 years
Type other

Technical Details

Classification Payload
Mass 712.00 kg
Dry Mass 639.00 kg
Total Mass 712.00 kg
Length 3.50 m
Diameter 2.00 m
Span 8.00 m
Shape Hex Cyl + 2 Pan
Manufacturer ISRO
Bus Type IRS-2
Phase Status In Orbit
Owner/State ISRO/IN

Large Constellations

Loading constellations...